| time (UTC) | temp F | wind direction | speed MPH | gust MPH | rain 1hr in | rain 24hr in | rain mn in | humidity % | barometer mb |
| 20260504033838 | 51 | 315 | 0.0 | 0.0 | 0.00 | 0.00 | 0.00 | 44 | 1047.8 |
| 20260504031936 | 51 | 353 | 1.0 | 2.0 | 0.00 | 0.00 | 0.00 | 43 | 1047.7 |
| 20260504030939 | 52 | 337 | 0.0 | 2.0 | 0.00 | 0.00 | 0.00 | 42 | 1047.7 |
| 20260504024939 | 51 | 22 | 0.0 | 1.0 | 0.00 | 0.00 | 0.00 | 43 | 1047.6 |
| 20260504023938 | 51 | 360 | 0.0 | 0.0 | 0.00 | 0.00 | 0.00 | 43 | 1047.8 |
| 20260504022939 | 51 | 360 | 0.0 | 0.0 | 0.00 | 0.00 | 0.00 | 42 | 1047.6 |
| 20260504021937 | 52 | 360 | 0.0 | 0.0 | 0.00 | 0.00 | 0.00 | 41 | 1047.7 |
| 20260504020939 | 53 | 323 | 1.0 | 3.0 | 0.00 | 0.00 | 0.00 | 40 | 1047.8 |
| 20260504015937 | 53 | 360 | 1.0 | 2.0 | 0.00 | 0.00 | 0.00 | 40 | 1047.9 |
| 20260504014939 | 53 | 353 | 1.0 | 3.0 | 0.00 | 0.00 | 0.00 | 40 | 1047.7 |
| 20260504014036 | 53 | 315 | 2.0 | 4.0 | 0.00 | 0.00 | 0.00 | 39 | 1047.7 |
| 20260504013038 | 53 | 335 | 2.0 | 4.0 | 0.00 | 0.00 | 0.00 | 39 | 1047.7 |
| 20260504012136 | 53 | 337 | 1.0 | 2.0 | 0.00 | 0.00 | 0.00 | 38 | 1047.6 |
| 20260504011140 | 54 | 315 | 1.0 | 2.0 | 0.00 | 0.00 | 0.00 | 38 | 1047.4 |
| 20260504010137 | 54 | 337 | 0.0 | 1.0 | 0.00 | 0.00 | 0.00 | 38 | 1047.3 |
| 20260504005138 | 55 | 315 | 0.0 | 1.0 | 0.00 | 0.00 | 0.00 | 37 | 1047.2 |
| 20260504004138 | 55 | 285 | 0.0 | 1.0 | 0.00 | 0.00 | 0.00 | 35 | 1047.1 |
| 20260504003137 | 56 | 292 | 2.0 | 3.0 | 0.00 | 0.00 | 0.00 | 35 | 1047.1 |
| 20260504002138 | 56 | 315 | 1.0 | 2.0 | 0.00 | 0.00 | 0.00 | 35 | 1046.8 |
| 20260504001139 | 56 | 300 | 3.0 | 4.0 | 0.00 | 0.00 | 0.00 | 34 | 1046.7 |
| 20260504000138 | 56 | 292 | 4.0 | 6.0 | 0.00 | 0.00 | 0.00 | 35 | 1046.6 |
| 20260503235137 | 56 | 315 | 3.0 | 5.0 | 0.00 | 0.00 | 0.00 | 34 | 1046.6 |
| 20260503234138 | 57 | 313 | 2.0 | 3.0 | 0.00 | 0.00 | 0.00 | 33 | 1046.6 |
| 20260503232238 | 58 | 288 | 8.0 | 11.0 | 0.00 | 0.00 | 0.00 | 31 | 1046.5 |
| 20260503231237 | 58 | 320 | 6.0 | 9.0 | 0.00 | 0.00 | 0.00 | 30 | 1046.5 |
| 20260503230240 | 59 | 336 | 8.0 | 14.0 | 0.00 | 0.00 | 0.00 | 30 | 1046.5 |
| 20260503225336 | 59 | 333 | 2.0 | 6.0 | 0.00 | 0.00 | 0.00 | 30 | 1046.5 |
| 20260503224337 | 59 | 337 | 6.0 | 11.0 | 0.00 | 0.00 | 0.00 | 29 | 1046.4 |
| 20260503223339 | 60 | 280 | 4.0 | 7.0 | 0.00 | 0.00 | 0.00 | 29 | 1046.3 |
| 20260503221438 | 59 | 292 | 6.0 | 10.0 | 0.00 | 0.00 | 0.00 | 28 | 1046.4 |
| 20260503220536 | 59 | 20 | 4.0 | 7.0 | 0.00 | 0.00 | 0.00 | 27 | 1046.4 |
| 20260503215539 | 59 | 6 | 3.0 | 5.0 | 0.00 | 0.00 | 0.00 | 28 | 1046.4 |
| 20260503214538 | 59 | 302 | 14.0 | 21.0 | 0.00 | 0.00 | 0.00 | 28 | 1046.0 |
| 20260503213637 | 59 | 317 | 7.0 | 13.0 | 0.00 | 0.00 | 0.00 | 28 | 1046.1 |
| 20260503212637 | 59 | 323 | 11.0 | 18.0 | 0.00 | 0.00 | 0.00 | 28 | 1046.0 |
| 20260503211638 | 59 | 347 | 5.0 | 9.0 | 0.00 | 0.00 | 0.00 | 28 | 1046.2 |
| 20260503210736 | 59 | 295 | 8.0 | 14.0 | 0.00 | 0.00 | 0.00 | 28 | 1046.0 |
| 20260503205737 | 59 | 6 | 5.0 | 8.0 | 0.00 | 0.00 | 0.00 | 28 | 1046.1 |
| 20260503203738 | 58 | 312 | 9.0 | 14.0 | 0.00 | 0.00 | 0.00 | 29 | 1046.4 |
| 20260503202738 | 58 | 346 | 4.0 | 8.0 | 0.00 | 0.00 | 0.00 | 29 | 1046.4 |
| 20260503201837 | 58 | 345 | 7.0 | 13.0 | 0.00 | 0.00 | 0.00 | 30 | 1046.5 |
| 20260503200837 | 57 | 331 | 7.0 | 11.0 | 0.00 | 0.00 | 0.00 | 29 | 1046.6 |
| 20260503194836 | 56 | 324 | 5.0 | 10.0 | 0.00 | 0.00 | 0.00 | 30 | 1047.0 |
| 20260503193836 | 56 | 304 | 9.0 | 12.0 | 0.00 | 0.00 | 0.00 | 30 | 1046.9 |
| 20260503192840 | 56 | 295 | 8.0 | 12.0 | 0.00 | 0.00 | 0.00 | 30 | 1046.9 |
| 20260503191936 | 56 | 21 | 5.0 | 9.0 | 0.00 | 0.00 | 0.00 | 31 | 1047.2 |
| 20260503190937 | 56 | 318 | 6.0 | 12.0 | 0.00 | 0.00 | 0.00 | 31 | 1047.2 |
| 20260503190036 | 56 | 331 | 8.0 | 17.0 | 0.00 | 0.00 | 0.00 | 31 | 1047.1 |
| 20260503185036 | 56 | 329 | 6.0 | 13.0 | 0.00 | 0.00 | 0.00 | 31 | 1047.2 |
| 20260503184037 | 56 | 283 | 11.0 | 15.0 | 0.00 | 0.00 | 0.00 | 30 | 1047.2 |
| 20260503183038 | 56 | 21 | 1.0 | 2.0 | 0.00 | 0.00 | 0.00 | 31 | 1047.2 |
| 20260503182137 | 56 | 342 | 6.0 | 11.0 | 0.00 | 0.00 | 0.00 | 31 | 1047.4 |
| 20260503181139 | 55 | 317 | 9.0 | 13.0 | 0.00 | 0.00 | 0.00 | 31 | 1047.3 |
| 20260503180137 | 55 | 306 | 10.0 | 19.0 | 0.00 | 0.00 | 0.00 | 32 | 1047.2 |
| 20260503175138 | 54 | 325 | 8.0 | 16.0 | 0.00 | 0.00 | 0.00 | 33 | 1047.3 |
| 20260503174236 | 54 | 333 | 4.0 | 7.0 | 0.00 | 0.00 | 0.00 | 33 | 1047.4 |
| 20260503173238 | 55 | 314 | 8.0 | 15.0 | 0.00 | 0.00 | 0.00 | 35 | 1047.6 |
| 20260503172337 | 54 | 2 | 3.0 | 5.0 | 0.00 | 0.00 | 0.00 | 33 | 1047.6 |
| 20260503150736 | 48 | 338 | 7.0 | 12.0 | 0.00 | 0.00 | 0.00 | 44 | 1048.6 |
| 20260503130938 | 46 | 2 | 3.0 | 8.0 | 0.00 | 0.00 | 0.00 | 52 | 1048.5 |
| 20260503080137 | 45 | 4 | 3.0 | 6.0 | 0.00 | 0.01 | 0.00 | 52 | 1045.6 |
| 20260503072137 | 46 | 21 | 6.0 | 12.0 | 0.00 | 0.02 | 0.00 | 51 | 1045.4 |
| 20260503071137 | 46 | 15 | 3.0 | 6.0 | 0.00 | 0.02 | 0.00 | 52 | 1045.4 |
| 20260503070137 | 46 | 24 | 1.0 | 5.0 | 0.00 | 0.02 | 0.00 | 52 | 1045.5 |
| 20260503053536 | 46 | 14 | 1.0 | 3.0 | 0.00 | 0.02 | 0.00 | 54 | 1045.8 |
| 20260503052537 | 46 | 22 | 1.0 | 2.0 | 0.00 | 0.02 | 0.00 | 55 | 1046.1 |
| 20260503051537 | 46 | 22 | 0.0 | 1.0 | 0.00 | 0.02 | 0.00 | 52 | 1046.2 |
| 20260503050537 | 47 | 48 | 0.0 | 2.0 | 0.00 | 0.02 | 0.00 | 51 | 1046.4 |
| 20260503045636 | 47 | 22 | 0.0 | 1.0 | 0.00 | 0.02 | 0.00 | 50 | 1046.4 |
| 20260503044639 | 48 | 45 | 1.0 | 3.0 | 0.00 | 0.02 | 0.00 | 50 | 1046.5 |
| 20260503043637 | 48 | 28 | 3.0 | 5.0 | 0.00 | 0.02 | 0.00 | 49 | 1046.5 |
| 20260503042638 | 48 | 22 | 1.0 | 5.0 | 0.00 | 0.02 | 0.00 | 50 | 1046.6 |
| 20260503041638 | 48 | 5 | 2.0 | 3.0 | 0.00 | 0.02 | 0.00 | 49 | 1046.7 |
| 20260503040638 | 48 | 15 | 4.0 | 5.0 | 0.00 | 0.02 | 0.00 | 49 | 1046.6 |